Theta_e
277 277 277 278 277 277 277 277 277 277 277 277 277 277 276 275 274 271 272 274 274 275 276 276 277 277 277 276 277 276 276 278 279 277 276 276 275 279 283 284 285 286 286 287 287 288 288 289 289 290 290 291 291 292 292 292 293 293 294 294 295 297 297 298 298 298 299 300 300 301 301 302 302 303
277 277 277 277 277 277 277 277 277 277 277 277 277 277 276 277 274 274 273 273 275 275 276 277 277 276 275 276 276 276 275 279 278 276 276 275 275 281 282 283 284 285 285 286 287 287 288 288 289 289 289 290 291 292 292 292 292 293 293 295 296 296 297 298 297 298 298 299 300 301 301 301 302 302
277 277 277 277 277 277 277 277 277 277 277 277 277 277 277 277 276 275 274 272 275 277 276 276 276 274 275 275 275 275 275 277 278 276 275 275 278 280 279 280 282 283 284 285 286 287 287 288 289 289 289 289 290 291 291 291 291 292 292 294 295 295 296 296 296 296 297 298 299 300 300 301 302 302
277 277 277 277 277 277 276 276 277 277 277 277 277 277 277 276 276 276 275 274 274 276 275 275 276 274 274 275 274 274 275 276 278 275 275 275 278 276 275 278 281 282 283 285 285 286 287 288 288 289 289 289 290 290 290 290 291 291 292 293 294 294 295 294 295 296 296 297 297 298 299 300 300 301
277 277 276 276 276 277 276 276 276 276 276 276 276 276 276 276 276 275 275 273 273 275 276 275 275 274 274 273 273 273 273 273 274 276 275 275 274 275 275 275 278 281 283 284 285 286 287 288 288 288 288 288 289 289 289 289 290 291 292 292 293 293 293 294 294 295 295 295 296 297 297 298 299 300
277 276 276 276 276 276 276 276 275 275 275 275 275 275 275 275 275 276 274 274 273 272 274 273 274 272 274 272 274 272 272 273 274 273 274 275 275 275 275 274 275 280 282 283 285 286 287 287 287 287 287 288 288 288 289 288 289 290 290 290 291 292 293 294 294 293 294 295 296 297 297 298 299 299
276 276 276 275 275 275 275 275 275 275 274 274 274 274 274 274 274 274 274 273 271 272 271 273 272 272 272 272 272 273 273 273 274 273 273 274 275 276 275 275 275 279 282 284 285 286 286 286 286 287 287 287 287 288 288 288 289 289 290 290 290 290 291 292 292 293 293 295 295 296 296 297 298 298
276 276 275 275 275 275 274 273 273 273 274 273 273 273 273 273 272 272 272 272 271 271 269 270 270 272 271 271 272 273 273 273 273 273 274 274 274 274 276 275 275 278 282 284 284 284 285 285 285 286 286 286 287 287 288 288 288 288 288 289 289 290 289 290 289 291 292 293 295 295 296 296 296 297
276 276 276 275 274 274 274 272 272 272 272 272 271 271 271 271 271 271 271 270 271 269 268 269 271 271 271 272 272 273 272 273 273 274 273 274 274 274 275 276 277 280 282 282 282 282 283 284 284 285 285 286 286 287 287 287 287 287 287 288 288 289 288 288 288 289 290 291 292 293 295 296 296 297
276 276 276 275 274 274 274 272 272 271 271 270 270 270 270 270 271 270 270 270 269 269 269 269 268 271 270 271 271 272 273 272 272 273 273 274 274 274 274 275 277 278 278 277 278 280 281 282 283 284 284 285 286 286 286 286 286 286 286 286 286 287 287 287 287 288 289 289 290 291 292 293 295 295
276 276 276 274 274 274 274 272 271 271 270 270 269 269 269 269 269 269 269 269 269 269 268 269 269 269 271 271 270 273 273 273 273 272 272 272 274 275 274 275 276 277 277 279 281 280 280 282 281 282 283 284 285 285 285 285 285 285 284 285 285 286 286 287 287 288 288 289 289 290 290 291 293 294
276 275 275 274 274 274 274 272 271 271 270 269 268 268 268 268 268 268 269 269 269 268 269 269 269 270 270 271 272 274 273 272 272 274 273 271 272 274 275 275 275 276 276 276 276 279 279 279 280 282 282 282 283 284 283 283 282 282 283 284 285 286 286 287 287 288 288 288 289 289 289 290 291 293
275 275 274 274 273 274 275 276 274 274 273 269 268 268 268 268 268 267 267 267 268 267 268 268 271 270 271 272 272 272 272 272 272 273 273 273 273 274 274 275 276 276 275 276 276 276 277 277 277 277 277 277 280 280 281 281 281 282 283 284 285 286 287 287 288 288 288 288 289 289 289 289 290 291
274 274 274 274 276 276 277 277 277 277 276 275 271 269 268 268 267 266 265 266 267 268 268 268 270 270 271 272 272 272 273 273 273 273 273 272 273 274 274 275 275 277 276 276 275 276 278 277 276 277 276 277 278 278 278 278 280 282 284 285 286 287 287 287 288 288 288 288 289 289 289 289 289 290
273 273 273 273 276 276 277 276 278 278 278 277 275 275 273 272 268 266 267 267 269 268 268 270 271 271 271 273 274 273 273 273 273 273 274 274 274 273 272 271 274 278 277 276 275 274 277 276 275 275 276 277 277 277 277 281 283 284 285 286 286 286 286 287 287 287 288 288 288 289 289 289 289 289
274 273 272 273 274 275 275 275 276 277 278 278 277 276 276 275 275 274 271 270 270 270 269 270 271 272 272 273 274 273 273 273 274 275 274 274 274 273 272 273 272 276 277 274 272 271 274 275 274 274 275 276 277 277 280 282 282 284 284 285 285 286 286 287 287 287 288 288 288 289 289 289 289 289
273 272 272 272 273 274 277 275 274 275 276 278 278 277 277 277 278 278 278 277 274 274 272 271 273 274 274 273 273 273 274 276 274 274 274 275 274 274 274 274 274 274 275 272 270 269 271 273 272 272 274 274 275 275 278 280 282 283 284 284 285 285 285 286 286 287 287 288 288 289 289 289 289 289
273 273 272 272 272 273 274 273 273 274 275 276 275 275 275 275 277 279 279 279 278 277 275 275 274 275 274 273 274 275 276 275 274 274 274 275 274 274 273 273 272 273 273 270 269 268 270 272 271 270 272 274 274 274 277 281 282 283 284 284 284 285 285 285 286 286 287 287 287 288 288 288 288 288
273 273 273 272 272 272 273 273 273 273 274 275 275 275 275 276 276 276 276 276 275 275 275 275 274 274 275 275 276 276 277 276 276 277 276 275 274 273 272 271 271 270 272 271 270 265 268 271 270 270 271 273 273 274 277 280 281 282 283 283 284 285 285 285 286 286 286 287 287 287 288 288 288 288
273 273 273 272 272 272 273 276 278 276 274 273 272 271 271 271 272 272 275 276 277 276 276 275 275 275 276 278 277 278 279 278 278 277 275 273 270 267 265 265 267 267 271 271 269 266 267 270 270 270 272 273 272 273 274 278 280 281 282 282 282 283 283 283 284 285 286 287 287 287 288 288 288 288
273 273 273 273 272 272 272 277 279 278 276 270 269 269 268 268 268 270 274 277 278 279 279 279 280 280 281 281 280 280 280 278 277 273 270 267 264 263 263 264 265 266 269 269 270 268 266 269 270 269 270 271 272 272 273 274 277 278 279 280 281 281 281 282 283 284 284 285 285 286 286 287 287 286
273 273 275 274 273 272 272 278 280 279 275 270 269 269 268 268 269 271 273 274 276 278 279 279 279 278 278 278 278 277 276 276 276 269 266 265 264 263 262 262 264 266 267 268 271 267 267 269 270 269 270 271 271 272 272 272 273 276 276 278 279 280 280 281 281 282 283 283 284 285 285 286 286 284
273 274 275 276 274 273 274 280 281 281 276 270 270 270 270 269 270 272 274 273 272 273 273 273 274 274 274 272 270 271 274 274 272 270 268 266 263 262 263 263 264 263 265 269 271 266 267 268 269 269 266 264 268 271 271 271 271 272 272 273 273 277 279 280 281 281 282 282 283 283 284 285 285 282
272 273 274 276 278 277 278 280 281 281 278 272 272 272 271 271 271 274 273 272 273 273 273 272 272 272 271 270 269 268 268 269 269 269 269 268 266 263 263 263 264 263 264 268 271 267 267 268 267 268 266 263 262 267 270 270 271 271 272 272 272 275 278 278 278 280 280 281 282 282 282 283 283 280
272 272 273 274 278 279 279 280 281 281 281 277 274 274 273 274 274 275 271 274 276 271 270 269 269 267 265 264 265 266 267 267 267 268 269 269 269 266 264 263 263 264 266 268 272 268 265 266 264 266 265 266 266 266 268 269 271 271 272 272 272 273 273 274 275 274 277 278 280 281 281 282 282 281
272 272 273 274 277 280 280 280 281 281 281 280 276 275 278 278 278 275 272 269 268 266 265 264 263 262 261 261 261 262 264 266 267 268 268 269 269 269 268 266 264 262 263 268 272 268 265 264 265 265 265 265 265 267 266 267 269 271 272 272 273 273 274 273 273 273 273 273 274 275 276 280 281 282
272 273 273 274 279 280 280 280 281 281 281 281 277 279 279 278 279 274 268 268 266 264 263 262 260 259 259 259 261 262 264 266 267 267 268 268 268 268 268 269 268 267 268 268 269 268 266 265 267 266 265 266 265 266 266 266 267 271 271 271 272 273 273 273 272 272 273 273 274 278 279 280 281 282
273 273 273 275 279 280 280 280 280 281 281 279 280 280 279 279 277 268 266 264 263 261 260 259 257 257 260 261 261 263 264 266 267 267 267 267 268 268 268 268 268 268 268 268 268 268 267 266 266 268 268 266 265 264 264 268 269 269 269 270 271 272 272 272 272 272 273 273 273 273 273 273 274 275
274 275 276 277 280 280 281 280 281 281 280 280 279 279 279 276 267 265 263 262 259 258 258 257 258 258 260 263 264 266 266 266 267 266 266 266 266 266 266 266 266 266 267 267 267 268 268 267 267 268 268 268 267 267 267 266 267 267 269 268 268 270 271 272 272 271 271 272 272 272 272 273 273 276
277 278 278 278 279 280 280 279 277 276 276 279 278 278 275 268 265 263 262 259 259 258 257 258 257 259 261 263 265 265 265 264 263 263 262 262 262 263 263 263 264 265 266 267 268 269 269 269 269 269 268 268 268 267 267 266 266 268 268 268 269 270 271 271 271 271 271 270 271 271 272 272 272 274
276 276 277 276 278 278 280 277 276 276 277 275 274 270 266 264 262 262 260 260 259 258 257 258 258 260 261 264 263 261 262 261 262 264 262 262 262 262 263 262 262 263 265 266 268 269 269 269 269 269 267 266 267 267 268 268 266 267 267 268 268 265 268 270 270 270 270 270 271 271 271 272 272 275
275 275 277 277 276 276 274 272 271 270 268 266 265 264 263 262 261 264 266 265 262 261 260 259 260 259 259 258 259 259 259 260 261 263 262 262 262 262 263 262 262 263 264 265 266 268 269 269 269 269 268 267 266 267 268 267 266 266 266 267 268 268 269 268 269 269 270 270 269 269 270 270 271 272
274 274 273 271 269 267 266 265 265 264 263 263 262 261 260 260 261 261 261 261 259 257 257 257 257 258 257 257 258 259 258 259 260 262 261 262 262 262 263 262 262 262 262 263 265 265 266 268 269 269 268 268 268 267 266 265 266 267 266 267 267 267 268 269 269 269 270 269 268 269 269 270 271 272
272 270 269 268 267 266 265 264 264 263 263 261 260 260 263 260 258 259 258 258 257 258 258 257 257 257 257 257 257 257 258 259 260 262 264 262 262 261 261 261 261 262 263 263 264 264 265 266 266 267 267 267 268 268 268 266 265 266 267 267 267 267 268 269 269 270 270 269 268 267 268 269 271 273
270 269 268 267 266 266 265 265 264 263 262 261 261 260 261 260 261 261 259 258 258 259 259 257 257 257 256 257 258 258 259 260 260 260 261 261 261 261 261 261 261 262 263 263 263 264 264 264 264 264 264 265 265 266 271 269 266 266 267 267 268 267 267 268 269 269 269 269 269 267 267 268 268 270
268 268 267 266 265 265 264 264 263 263 262 262 262 261 260 259 260 260 259 261 259 258 258 258 258 257 257 257 258 259 260 260 260 260 260 260 261 261 262 262 262 263 263 263 263 264 263 263 263 262 261 261 261 261 263 270 271 268 266 265 267 267 267 268 268 269 268 268 268 267 266 265 267 269
267 267 266 265 265 264 264 264 263 262 262 262 261 261 261 260 260 261 262 264 261 259 259 259 259 259 259 259 259 260 260 260 259 259 260 260 260 261 261 262 263 263 262 263 264 263 263 263 263 262 261 260 260 260 261 266 268 272 269 266 266 267 267 267 267 266 267 268 267 267 267 267 266 268
267 266 266 265 264 264 264 263 262 262 262 262 261 261 261 261 261 262 263 262 261 260 261 260 259 259 258 259 259 259 259 259 259 259 260 260 260 260 261 261 262 262 263 264 264 263 264 263 262 262 261 260 259 260 260 263 265 267 271 269 266 266 268 267 266 265 266 267 267 268 268 267 267 268
267 266 265 264 264 264 263 262 262 262 262 261 261 260 260 260 261 261 261 260 260 260 259 258 258 258 258 257 258 258 258 258 258 259 259 260 260 260 261 261 262 263 263 263 263 263 263 262 262 262 262 261 260 261 262 262 262 265 269 272 269 267 267 267 265 266 266 266 267 268 269 270 271 274
267 266 265 264 263 263 263 262 262 262 261 261 261 261 260 260 260 259 259 259 258 258 259 259 260 261 258 258 257 257 257 258 259 259 259 260 260 261 261 262 262 263 263 262 262 262 262 261 262 262 263 263 264 265 265 265 266 267 267 269 272 270 268 268 266 266 266 267 268 267 266 268 267 268
265 265 264 264 263 262 262 262 262 262 261 261 260 262 261 260 260 259 258 258 259 259 260 260 258 257 256 256 256 257 258 259 259 260 260 260 261 262 263 264 263 263 262 261 261 261 261 263 265 269 266 265 266 266 264 262 261 263 264 266 270 272 273 272 269 268 266 268 267 266 265 265 265 266
265 264 264 263 262 262 262 262 261 261 261 260 260 261 260 260 259 262 262 263 261 259 257 257 256 256 256 256 256 258 258 259 259 260 260 260 261 262 263 263 262 263 262 261 261 261 263 265 265 265 264 264 263 262 260 261 261 262 264 265 266 270 272 272 273 273 270 268 267 265 265 265 266 265
264 264 263 262 262 262 262 261 261 261 260 260 259 260 259 259 259 260 258 257 257 256 255 255 255 255 256 256 256 257 258 259 259 260 260 261 262 262 263 263 263 262 262 262 263 263 263 264 264 263 263 263 263 263 261 262 262 263 263 264 264 266 267 271 272 272 273 273 273 271 268 267 265 263
263 262 262 261 261 261 261 261 260 260 260 259 259 259 259 258 258 257 256 255 255 255 255 255 254 254 255 256 256 257 258 259 260 261 262 263 263 263 263 263 262 262 262 262 262 262 262 262 262 262 262 262 263 262 262 262 262 263 263 263 264 264 264 266 267 269 271 272 272 273 274 274 274 273
263 262 261 261 261 260 260 260 259 259 259 259 259 259 259 258 258 256 255 255 255 255 255 255 254 254 254 256 256 257 259 262 263 262 263 263 263 263 263 262 262 262 262 262 261 261 261 261 262 262 262 262 263 263 263 263 262 263 263 263 263 264 264 265 264 264 265 265 269 272 273 274 274 274
Wind_Speed
7 6 8 7 7 6 5 5 5 5 4 4 4 5 6 5 3 0 3 3 5 4 3 5 4 3 4 2 2 1 1 4 6 2 3 3 3 9 14 15 15 15 17 18 18 18 18 19 20 21 21 21 21 21 22 22 23 23 23 24 24 25 25 24 25 25 25 25 25 25 25 24 24 24
7 6 6 6 7 6 6 6 5 5 5 6 5 5 2 4 5 4 4 6 4 4 2 1 2 2 2 1 2 3 3 9 9 4 5 5 6 15 17 17 17 17 18 18 18 19 19 19 20 21 21 21 22 22 23 24 24 24 25 26 26 26 25 24 24 25 25 25 25 25 25 25 25 25
7 8 8 6 6 6 6 6 6 5 6 6 6 5 4 3 3 5 4 1 3 3 1 2 4 4 4 6 6 7 7 10 12 8 7 5 12 16 12 16 18 18 20 20 20 20 20 20 20 21 21 22 23 23 24 25 25 25 26 26 26 25 25 25 25 25 26 26 26 27 26 25 26 25
7 8 9 8 7 7 6 6 6 6 6 6 6 6 6 4 3 4 4 5 7 3 2 2 3 6 5 6 7 6 6 7 12 9 8 9 14 9 7 13 17 18 19 19 19 19 19 20 20 21 22 23 24 23 24 25 26 26 27 27 26 26 26 26 26 26 27 27 27 27 27 27 26 26
8 8 8 8 7 8 8 7 7 7 7 6 6 6 6 6 6 6 6 6 8 5 3 2 3 5 6 5 2 5 4 6 7 7 6 6 7 7 7 7 13 18 19 20 20 20 19 20 21 22 22 22 23 23 24 24 25 26 27 28 28 28 27 27 27 28 27 28 28 28 27 27 27 27
8 9 10 9 8 9 9 9 9 8 8 8 7 7 7 7 7 6 7 6 5 9 2 2 3 4 4 5 5 6 7 7 7 9 7 6 6 7 6 6 6 15 17 19 19 20 21 21 21 22 22 22 23 23 23 24 24 25 26 26 25 26 27 27 28 28 29 29 28 28 28 27 27 27
10 10 10 10 9 8 9 9 8 8 8 7 8 7 6 7 6 6 5 5 7 8 7 0 1 1 2 4 8 7 6 7 7 8 8 8 7 6 7 7 6 11 16 18 18 19 20 21 21 22 22 22 23 23 23 24 25 26 26 26 25 25 25 27 27 28 29 30 29 29 28 28 28 28
13 13 12 11 11 10 10 9 9 8 8 8 7 7 6 6 6 5 5 6 5 3 5 2 3 3 2 5 7 7 6 7 6 6 8 7 8 8 6 6 6 8 16 17 18 19 19 19 20 21 22 22 22 23 24 25 26 26 26 26 25 25 26 27 29 29 29 29 28 28 29 29 29 28
14 14 14 13 12 12 11 9 9 9 10 8 8 8 7 7 6 5 6 4 5 4 6 4 3 4 5 6 7 7 6 6 6 7 7 7 7 6 5 5 6 11 15 16 17 17 17 18 19 20 20 22 23 24 25 26 26 26 27 26 27 28 30 30 30 30 29 28 28 28 28 28 29 29
13 14 14 13 14 14 14 13 10 10 11 9 8 8 8 7 6 7 6 6 5 5 5 5 4 5 5 5 5 6 7 7 7 5 5 3 4 5 6 4 5 4 4 4 6 8 11 12 18 19 20 23 24 25 27 27 27 28 28 28 30 31 32 32 31 31 30 30 29 29 29 30 30 30
13 13 12 13 14 14 13 13 13 12 11 10 10 9 9 8 7 7 6 6 6 6 5 5 5 5 5 4 5 6 6 6 5 7 7 6 5 5 6 9 6 5 6 6 11 11 12 15 13 17 22 24 26 27 27 26 27 27 28 29 30 31 32 32 32 31 30 30 30 31 31 31 32 32
13 13 12 12 13 13 12 12 11 13 12 9 9 8 8 8 8 6 5 5 5 5 5 5 5 5 5 5 5 5 2 2 2 2 7 11 10 8 6 7 10 7 6 6 4 6 9 9 13 18 18 20 22 25 25 25 26 28 28 29 29 30 30 30 30 31 31 30 30 30 31 31 31 31
12 12 11 10 11 11 12 14 12 12 12 11 11 8 8 8 7 6 4 4 4 3 4 4 5 4 4 4 5 6 5 6 8 7 7 8 8 10 10 6 6 6 8 7 5 6 7 9 8 8 8 7 15 16 21 19 23 24 26 27 28 29 30 30 31 31 30 32 31 31 31 31 31 31
12 12 11 10 16 17 17 17 18 18 17 14 10 11 10 9 8 7 7 6 5 5 5 5 3 3 4 5 5 5 3 4 5 7 7 9 10 11 11 6 2 6 6 9 11 6 6 10 10 7 8 7 9 10 10 10 15 22 27 28 28 30 30 31 31 32 32 31 32 31 31 30 30 30
14 12 12 10 14 16 16 15 20 18 18 17 16 17 16 13 11 10 8 7 7 6 5 4 3 3 4 4 4 4 4 4 5 7 8 10 11 12 14 16 11 0 11 11 10 13 7 9 11 8 8 10 9 9 10 19 25 28 28 29 30 30 31 31 32 33 32 32 31 31 31 31 31 31
14 14 10 9 10 10 12 11 13 16 20 18 17 18 18 18 18 15 10 9 8 7 5 4 4 3 3 4 4 3 4 7 8 9 10 11 12 13 12 11 14 11 12 16 13 14 5 8 9 9 7 8 9 10 19 26 28 29 29 30 30 30 30 31 31 32 31 31 31 32 31 30 31 31
10 8 8 8 8 9 19 13 10 10 13 17 19 17 18 18 18 17 17 14 9 7 6 5 4 4 5 4 2 2 6 8 9 10 9 10 11 11 11 11 13 13 12 13 13 14 9 8 11 10 9 11 13 13 17 25 28 29 29 30 30 31 31 32 32 31 31 31 31 31 31 32 31 31
10 11 10 11 9 9 12 10 11 10 11 12 12 13 12 11 15 18 18 17 17 12 7 4 4 2 0 3 5 6 6 7 7 7 7 9 10 8 8 11 12 12 8 10 12 16 8 7 12 14 11 11 11 10 17 27 27 30 30 30 31 31 31 31 31 32 33 33 33 33 33 34 34 33
8 10 8 8 8 11 12 11 14 12 12 11 10 10 10 8 8 8 7 5 2 2 0 0 1 3 5 6 7 5 5 6 5 6 9 7 8 9 10 11 9 9 4 6 7 12 12 7 12 14 12 13 11 5 14 23 27 31 31 29 27 28 30 29 31 33 33 33 32 32 32 33 34 34
7 8 10 10 12 10 9 17 23 17 11 10 10 10 8 6 4 4 5 7 7 5 4 4 5 5 7 10 8 6 5 5 5 5 5 6 6 7 9 11 8 8 4 3 7 11 13 7 10 15 10 10 15 13 11 20 26 26 28 30 31 31 31 32 34 34 32 31 31 31 31 31 32 32
9 9 10 9 8 10 9 19 23 23 20 10 11 10 9 7 5 5 5 10 12 12 11 11 12 13 13 11 12 12 11 6 6 6 7 6 3 6 10 12 8 8 6 5 5 8 13 7 8 15 16 11 13 13 11 8 18 27 28 30 32 32 32 33 33 33 34 36 35 35 34 34 33 37
7 10 20 14 10 11 11 23 23 23 18 12 12 10 10 9 8 7 7 6 7 11 10 7 6 7 10 12 8 5 6 8 8 3 7 5 3 6 4 9 10 11 8 8 4 4 9 11 11 13 15 15 9 9 11 10 13 22 25 32 33 32 30 31 33 33 34 35 34 35 36 35 34 25
7 10 14 19 15 13 16 25 24 24 17 11 11 11 10 10 10 9 9 7 6 4 3 1 4 4 2 1 1 2 8 9 7 3 5 4 3 5 5 6 9 12 6 3 6 9 11 12 13 11 13 17 11 4 8 11 10 12 14 16 17 25 29 31 31 31 33 33 33 32 34 34 30 18
7 8 11 16 21 22 24 25 27 26 23 13 10 10 9 10 11 9 8 6 6 4 3 2 2 2 1 1 1 1 1 2 2 4 4 4 3 4 5 5 5 9 9 5 9 8 10 8 10 7 7 11 19 16 13 18 16 11 10 12 12 19 25 28 25 31 31 29 33 33 34 33 31 18
9 12 11 10 21 24 25 25 27 26 26 20 13 12 10 9 8 9 7 9 10 5 5 4 2 1 1 1 1 1 1 2 2 3 5 5 5 5 5 6 7 10 12 9 11 6 9 9 12 12 10 8 17 20 17 12 13 15 15 12 13 13 9 10 11 14 22 31 33 35 34 34 34 26
12 11 12 12 19 26 25 24 24 25 25 24 11 12 15 15 16 9 7 6 6 6 5 4 2 2 2 2 1 1 1 2 3 4 4 6 6 6 5 7 9 10 14 6 11 8 9 11 8 10 12 11 17 16 19 20 21 15 13 11 11 14 12 11 12 12 13 12 15 20 24 33 32 33
10 8 8 11 23 25 25 25 25 23 24 20 12 20 19 17 17 11 7 7 7 5 4 3 3 3 3 2 1 1 1 2 3 4 5 6 7 8 8 9 10 12 13 10 5 6 8 12 12 10 14 13 15 17 19 20 18 20 16 19 11 9 9 11 15 16 14 13 16 27 30 31 33 34
8 9 12 14 25 26 25 26 24 23 21 14 19 20 19 20 14 8 8 7 6 6 4 4 4 4 4 2 1 1 1 2 4 6 6 7 7 8 7 9 9 12 13 12 9 8 9 10 13 12 12 13 15 17 20 23 19 17 22 20 16 13 10 10 17 15 13 12 13 13 15 17 16 15
9 11 18 22 25 25 25 24 23 20 21 21 20 20 21 14 7 8 7 8 7 7 6 7 5 4 3 3 2 2 3 4 6 4 5 5 7 7 9 10 10 11 10 9 9 8 8 9 12 13 13 10 12 14 18 22 25 24 21 19 20 16 18 19 15 18 18 13 13 13 14 12 16 13
19 21 23 26 25 23 21 16 12 9 11 19 19 20 17 8 8 7 7 7 8 7 6 6 6 4 2 2 1 1 2 3 4 4 5 6 7 6 7 9 9 8 9 9 9 9 9 9 11 11 13 14 13 15 17 19 21 20 21 18 19 21 15 11 15 15 16 16 20 16 16 14 16 19
13 17 17 15 19 14 20 14 11 11 13 13 12 8 7 7 7 7 7 8 7 6 6 5 3 2 1 1 1 1 2 4 4 3 5 6 8 6 8 8 11 10 7 7 8 8 8 9 11 14 14 15 15 13 15 14 18 21 22 22 19 16 18 16 19 16 20 17 17 15 16 14 15 18
13 13 15 18 13 12 10 9 7 6 5 6 7 7 6 6 6 7 9 7 5 4 4 3 2 0 0 0 2 2 3 4 5 4 5 6 8 7 7 9 10 10 11 7 6 7 7 8 11 12 13 13 17 17 17 13 17 16 21 18 18 17 14 15 19 17 14 13 17 15 17 14 15 13
12 12 11 9 8 8 9 9 8 7 7 5 6 7 6 6 6 6 6 7 7 6 5 5 3 2 1 2 2 3 3 4 5 4 5 6 7 8 6 9 11 11 13 12 8 6 5 7 9 13 14 15 17 18 16 16 17 16 16 15 17 18 15 11 14 18 18 15 19 21 19 16 13 14
13 12 11 11 11 10 10 10 10 9 8 7 6 5 7 6 6 6 6 6 6 5 5 4 4 2 2 3 3 3 4 4 4 5 7 7 6 8 9 9 10 8 9 11 11 10 10 9 8 11 12 14 16 16 14 14 22 20 17 15 15 16 16 12 15 16 17 20 20 22 22 24 20 16
13 13 14 13 12 12 11 11 11 9 9 8 8 7 6 6 7 6 6 5 5 6 5 4 4 3 3 3 2 3 4 4 5 4 5 6 7 7 8 10 11 10 9 10 10 10 10 12 12 14 14 12 12 12 16 16 15 18 17 14 13 14 17 15 16 19 19 18 17 20 23 23 24 18
12 12 12 12 11 11 11 10 9 9 9 8 8 8 8 7 5 7 7 5 6 5 5 4 4 3 3 3 3 3 4 6 5 5 6 6 7 8 8 9 10 11 10 9 10 9 8 10 10 12 16 18 16 19 18 6 10 13 16 17 13 11 13 14 16 15 16 18 16 18 21 25 24 23
13 11 11 11 11 11 11 10 10 9 9 9 9 9 9 8 7 4 5 6 5 5 5 4 3 2 2 2 4 5 5 6 6 6 6 6 7 7 9 10 10 9 10 10 8 9 7 9 8 10 12 15 17 19 22 14 7 15 15 15 19 13 12 15 17 19 16 16 21 19 20 23 28 26
12 11 11 11 11 11 9 9 9 9 9 8 8 7 7 7 4 5 5 4 4 4 4 3 2 1 2 4 3 4 4 5 6 6 7 6 7 8 8 10 11 10 10 10 7 8 9 8 9 9 9 13 17 20 22 23 16 10 14 17 20 22 15 14 19 18 18 15 13 19 20 24 25 23
13 13 13 12 12 11 11 10 10 10 9 9 10 9 9 7 5 5 5 5 4 4 3 3 3 3 3 3 4 4 5 5 6 7 7 6 7 9 10 10 11 11 11 12 11 9 7 9 9 9 10 12 15 18 19 19 24 20 16 26 22 23 20 14 19 20 19 17 16 19 17 21 27 39
12 11 11 11 10 10 9 9 9 9 9 9 9 9 10 8 7 6 5 5 4 4 4 3 3 3 3 3 3 4 5 7 8 8 8 8 8 8 9 9 10 11 12 13 13 11 7 8 8 8 10 14 16 17 19 20 20 20 17 17 26 24 21 19 20 20 19 17 18 15 20 13 19 18
11 11 9 9 9 9 10 9 9 9 9 10 9 7 7 7 7 6 6 6 6 4 4 3 2 1 3 3 4 4 6 7 7 8 8 9 9 10 11 11 11 8 9 13 12 12 11 10 14 25 22 14 16 16 15 15 17 16 15 13 17 29 33 29 27 23 21 19 17 19 19 19 19 17
10 10 9 9 10 9 9 9 9 9 8 9 8 7 7 6 6 8 7 6 5 4 3 2 2 2 3 3 4 4 6 7 8 8 9 9 10 10 10 8 9 10 10 12 13 14 14 13 12 12 11 11 12 12 17 17 17 18 19 15 13 18 29 33 34 33 27 24 20 19 18 19 16 18
11 10 10 9 9 9 8 9 9 9 8 8 8 7 7 6 6 7 6 5 4 3 2 2 3 3 4 3 4 4 6 8 8 9 9 10 9 10 10 9 8 8 10 13 14 13 12 12 11 11 12 10 11 11 16 17 18 17 19 18 19 12 16 26 33 35 37 39 36 31 24 20 16 22
9 9 9 9 9 9 9 9 8 8 8 8 7 7 6 7 6 6 5 5 5 4 4 4 4 4 4 4 4 5 7 8 8 9 10 9 9 10 10 10 9 10 9 10 13 13 10 12 10 11 11 12 11 12 15 17 18 17 17 19 17 17 19 15 18 22 25 30 34 37 42 42 40 41
10 10 10 9 9 9 8 8 8 8 7 7 7 7 6 5 5 5 5 5 4 4 4 4 4 4 3 4 4 6 7 9 10 8 9 10 10 10 9 9 11 12 12 11 10 15 13 14 12 10 10 11 10 12 16 17 19 18 20 19 22 17 14 16 18 20 17 15 19 30 35 37 39 41
Wind_Direction
163 162 168 164 158 164 154 148 147 145 139 148 158 174 172 160 137 207 326 251 162 211 198 154 189 157 143 155 172 136 118 355 356 328 322 306 284 303 321 324 323 324 326 327 326 326 325 325 329 328 329 328 326 324 323 323 321 319 317 314 313 313 313 311 310 310 308 305 303 301 299 297 294 293
164 159 159 158 159 162 159 158 149 148 151 154 168 180 176 157 158 170 179 266 194 191 208 141 187 176 85 29 3 33 6 349 348 332 327 324 310 321 327 326 326 327 327 325 324 324 325 324 328 329 328 328 326 325 324 324 322 319 317 317 315 314 312 312 311 310 308 306 304 302 300 297 296 295
163 164 167 163 160 161 157 148 150 151 152 160 161 166 160 181 144 149 127 244 283 144 190 23 54 21 4 9 1 0 356 343 336 329 321 314 313 319 314 317 321 324 325 325 323 323 323 323 324 326 326 326 325 324 323 322 321 319 317 315 313 312 312 311 310 307 306 305 304 302 301 299 297 295
170 166 171 174 165 160 152 155 159 161 161 158 164 167 168 176 167 146 172 198 258 104 111 18 18 31 357 359 6 351 334 328 319 315 314 308 313 310 304 309 314 317 319 320 319 319 321 321 322 323 323 323 323 323 322 322 322 320 319 318 316 313 312 310 308 306 305 304 304 303 301 300 298 296
169 174 174 174 169 160 161 164 161 165 164 161 164 164 166 173 175 172 173 202 261 296 76 26 354 7 6 338 40 321 305 305 297 292 286 287 287 293 293 299 304 309 315 318 317 317 318 320 320 321 321 319 319 320 320 320 320 319 318 317 315 312 310 310 308 306 304 304 303 301 300 298 296 294
176 175 175 176 170 174 167 164 171 168 165 167 161 174 172 176 180 181 173 207 210 269 358 46 44 16 12 304 309 302 310 300 301 300 300 288 278 284 284 285 284 295 306 311 313 315 318 319 319 319 319 318 317 317 317 317 315 315 314 312 310 310 309 307 307 305 301 299 298 297 296 295 293 291
175 175 180 180 172 170 171 176 173 166 168 165 168 173 174 175 179 180 184 178 216 241 278 208 234 153 245 268 291 294 280 276 277 285 288 291 289 279 276 277 276 287 301 307 311 313 315 316 316 316 315 316 316 315 313 312 312 312 311 309 307 307 309 309 307 304 302 298 295 294 293 292 291 290
178 181 178 182 176 175 176 177 172 173 165 169 170 169 176 176 174 178 174 197 175 208 234 265 150 204 197 252 264 265 266 265 265 257 268 260 259 258 257 262 266 274 295 307 310 310 311 311 311 311 311 312 311 309 309 310 310 309 307 304 303 304 305 307 306 302 300 298 296 292 292 291 289 287
181 182 186 178 175 175 177 177 178 173 171 169 166 174 171 173 170 164 175 168 186 189 222 247 241 233 239 244 250 256 266 268 262 260 254 258 259 259 249 252 261 279 294 297 300 304 305 308 308 307 309 308 307 307 308 307 306 306 305 303 301 302 304 303 301 299 296 295 294 293 291 291 289 289
184 185 185 179 178 180 182 183 176 169 171 165 170 170 174 168 166 162 160 164 179 193 216 221 248 232 242 249 239 243 241 265 279 278 270 270 274 293 300 274 276 278 272 282 279 289 296 295 304 308 309 307 305 305 304 302 302 303 303 302 301 302 301 300 299 298 296 293 291 291 292 292 290 289
186 187 184 180 182 185 186 176 176 171 169 172 174 174 170 166 164 160 162 170 176 192 207 223 225 237 241 236 265 248 242 254 272 302 319 319 302 300 309 312 301 293 286 278 293 301 306 307 308 307 305 304 304 302 301 301 301 301 299 298 295 295 296 295 295 293 292 291 289 289 289 288 287 284
186 186 185 184 186 186 184 177 173 170 171 164 169 170 163 164 163 166 162 166 180 192 206 216 226 235 249 238 225 234 249 283 283 310 326 322 327 323 317 308 313 307 292 302 294 293 298 294 296 297 297 298 300 299 300 298 297 297 297 295 295 296 295 295 293 292 290 288 285 284 285 284 283 281
181 184 183 182 184 185 181 178 172 176 169 163 166 168 163 165 162 160 163 174 182 193 203 228 242 253 284 304 330 343 356 356 336 326 324 313 314 317 315 314 292 283 311 305 297 307 304 303 301 299 295 292 294 292 294 296 297 293 293 298 296 296 294 293 292 290 288 287 283 282 281 280 280 278
181 180 179 181 182 181 178 176 176 177 177 174 164 162 166 165 161 165 171 185 187 193 205 219 252 287 310 331 337 341 331 324 313 322 328 326 324 322 315 299 318 313 301 320 318 326 336 310 301 295 295 297 294 294 295 291 293 297 300 298 296 294 294 291 292 290 289 287 285 282 281 280 278 278
178 178 178 174 179 177 177 178 179 180 181 178 173 171 171 171 166 166 177 190 188 193 207 221 235 263 299 324 344 343 329 317 329 330 330 327 327 330 330 325 323 121 340 326 322 310 324 305 304 308 302 300 293 292 292 298 301 301 299 298 298 295 292 291 289 290 287 285 282 280 280 279 278 278
176 176 165 166 172 174 175 171 181 186 188 183 181 177 178 180 182 183 175 179 188 198 196 205 220 243 282 316 341 330 327 324 327 328 329 326 324 320 318 313 312 326 351 324 316 304 332 308 299 299 302 298 293 299 304 307 306 301 299 298 296 294 292 291 289 288 286 283 282 282 279 277 277 278
165 138 144 150 171 173 177 173 174 172 182 183 180 180 182 189 197 203 203 199 192 198 197 198 217 267 297 311 317 313 305 309 311 319 318 319 314 310 308 309 312 318 337 316 311 304 325 326 315 306 304 300 302 304 304 299 299 297 296 296 296 296 294 292 290 288 287 285 283 281 280 279 278 277
157 163 160 163 164 168 175 169 172 171 173 176 179 184 189 198 209 215 219 219 205 199 203 227 249 263 83 289 287 278 282 305 308 309 306 313 312 316 310 310 303 307 333 310 312 302 324 352 315 303 303 294 289 292 293 301 304 302 300 298 297 294 293 292 289 288 287 286 283 282 281 280 279 278
151 161 158 152 150 162 174 172 174 170 172 172 177 182 188 191 195 203 209 212 208 228 138 149 284 267 251 243 254 275 283 267 262 296 313 330 323 313 309 297 287 291 302 303 311 292 313 342 306 296 302 299 288 265 292 302 304 302 301 299 300 301 301 298 295 293 289 285 284 282 281 280 278 276
152 153 160 156 166 165 163 176 177 175 166 165 167 171 171 170 178 191 205 217 225 216 211 219 229 238 243 252 253 255 270 302 323 335 337 326 327 331 309 297 307 298 330 324 313 300 302 325 295 297 295 304 303 305 295 303 305 304 304 303 304 302 301 300 296 293 291 289 286 284 283 283 282 280
162 165 162 160 151 160 162 178 178 176 172 161 171 173 174 176 180 198 205 221 227 232 235 237 241 249 256 280 297 302 309 322 341 346 325 305 349 327 312 301 311 302 329 313 304 289 295 316 318 307 301 298 298 301 298 302 306 305 302 302 304 303 302 301 297 295 295 292 289 287 285 285 284 282
156 166 173 167 155 161 166 179 177 177 171 169 173 170 172 179 189 198 195 202 216 225 237 251 266 282 285 286 297 335 331 321 322 346 294 294 355 293 276 291 305 307 314 301 288 293 293 314 313 306 299 299 271 279 292 299 301 304 302 298 299 299 297 295 293 291 290 289 288 286 284 282 281 281
153 171 177 173 167 164 171 179 179 177 170 166 172 172 173 185 194 197 183 184 187 159 108 298 294 308 289 55 69 316 328 324 320 297 271 285 258 263 274 288 311 313 314 146 31 323 303 314 308 321 317 310 291 189 278 300 293 288 291 290 291 291 294 292 290 288 289 289 289 289 288 285 282 278
169 174 179 181 177 173 177 181 181 180 170 166 171 176 183 189 191 177 179 169 148 177 172 148 146 187 185 280 324 327 321 301 265 268 251 247 238 249 274 277 271 266 276 293 332 310 299 300 298 315 294 300 303 308 307 305 299 284 269 278 275 286 290 289 287 285 284 289 290 289 289 287 284 279
167 175 181 174 183 181 181 183 185 184 179 174 175 186 186 184 173 158 158 176 176 123 117 114 146 226 291 282 280 279 279 270 256 251 267 258 260 260 262 274 268 266 270 283 308 305 296 303 294 303 289 273 281 295 295 290 285 292 295 287 285 282 266 264 268 273 282 285 289 287 287 285 283 277
180 179 174 176 184 184 183 184 187 186 187 183 167 187 189 189 193 181 146 121 112 118 117 133 162 215 254 255 252 243 236 247 251 255 252 261 261 256 256 259 271 278 279 286 301 296 295 288 281 288 288 291 289 286 293 295 298 289 285 272 277 287 288 283 280 277 278 277 281 282 282 281 278 277
176 162 165 169 180 183 183 185 186 186 187 189 172 183 191 191 188 145 128 126 126 123 135 139 210 229 222 228 244 268 273 275 270 268 269 265 267 265 259 256 257 265 278 290 281 272 271 278 284 278 285 285 285 291 289 294 302 305 294 292 275 271 264 278 283 285 283 278 278 285 287 285 283 281
162 160 171 172 180 184 183 183 183 185 186 184 177 182 187 189 164 125 136 121 130 130 141 181 209 220 218 190 221 229 256 272 284 285 284 279 273 272 272 268 266 266 274 278 276 259 254 264 277 275 268 277 284 291 297 296 291 296 296 300 291 287 276 277 288 285 283 282 282 279 279 280 277 275
168 164 166 172 182 182 179 180 182 184 186 183 188 188 186 161 112 139 130 140 130 155 182 194 204 208 208 196 218 263 290 289 292 288 283 282 276 274 269 264 261 264 265 266 264 259 252 255 267 277 278 270 275 282 290 291 297 297 295 296 295 299 297 295 286 283 286 284 280 279 274 276 276 269
167 169 173 176 181 182 184 182 176 161 175 186 179 169 150 128 145 131 139 141 156 180 178 181 196 206 187 190 207 277 300 292 281 283 280 286 285 280 282 283 271 251 250 260 264 263 261 266 272 284 288 288 279 279 285 293 294 292 292 286 290 293 278 284 287 289 285 286 284 274 272 262 264 272
168 171 170 173 178 176 175 160 140 148 173 167 153 134 128 135 139 149 153 165 163 166 166 179 191 195 185 141 26 296 270 272 269 268 274 278 279 285 281 283 286 291 257 233 253 260 270 276 284 293 291 291 287 274 285 283 283 288 291 290 291 285 293 294 282 282 289 281 280 270 270 262 258 254
161 162 167 172 173 166 153 144 133 129 114 127 129 132 129 126 137 152 156 144 141 150 157 161 145 106 130 257 238 245 254 261 272 271 272 271 281 281 289 291 289 291 295 278 254 251 253 269 283 286 282 287 292 295 295 281 275 274 279 284 286 281 276 279 287 285 281 280 280 274 273 263 263 259
150 151 161 155 148 141 138 132 141 146 138 129 134 133 132 130 140 150 155 159 163 161 141 158 161 184 169 239 240 242 260 263 269 274 271 272 271 284 274 275 286 297 302 302 297 275 258 265 264 275 282 281 277 278 283 288 282 276 273 277 286 286 283 277 278 288 293 283 283 284 283 274 262 262
150 157 154 158 156 158 156 157 157 160 159 151 151 160 154 151 156 162 162 157 157 150 156 158 153 184 190 234 240 246 256 276 267 268 278 280 277 280 284 284 282 278 278 290 300 304 302 290 279 272 264 262 259 257 259 265 277 280 281 282 279 280 284 286 282 286 288 289 290 288 284 284 276 268
160 161 167 171 169 171 167 166 165 160 162 167 161 168 168 161 169 164 158 168 153 151 149 161 169 184 192 225 244 260 270 273 280 274 261 260 270 267 277 285 289 290 289 292 297 304 306 307 312 308 300 289 278 256 220 232 257 274 283 277 274 277 284 286 285 289 288 285 285 281 284 281 281 277
172 173 167 164 166 165 168 170 162 166 164 165 164 160 160 174 174 162 167 165 150 154 150 163 175 183 201 220 242 255 266 272 273 272 274 266 270 279 274 273 280 287 287 289 294 297 301 302 314 312 313 311 310 306 301 218 260 283 289 291 284 276 279 282 280 278 281 282 276 277 279 282 283 279
166 170 168 165 167 170 176 170 168 166 165 166 167 171 170 170 171 166 164 146 147 154 166 156 181 189 210 223 247 255 267 271 275 270 270 273 271 276 286 284 280 279 288 287 286 290 295 301 303 304 304 302 305 300 294 296 249 268 285 289 292 283 281 287 284 281 274 274 280 274 272 277 278 278
166 164 166 171 173 174 171 166 160 161 162 166 167 164 165 138 135 144 144 141 152 152 174 162 174 191 226 230 245 260 260 263 267 274 271 276 279 283 281 289 294 292 288 284 282 292 303 296 293 297 294 294 299 299 302 306 298 262 267 283 288 290 289 284 281 279 281 272 256 271 271 268 271 278
164 168 174 173 174 171 168 165 166 168 165 149 150 143 147 142 137 135 145 151 150 151 155 168 190 204 222 232 233 245 268 276 279 274 275 270 272 281 287 290 293 292 294 297 299 293 291 283 287 285 286 288 290 290 294 296 294 297 291 283 281 285 286 279 279 280 281 281 278 274 259 265 269 272
170 170 172 166 166 164 163 157 159 160 160 167 157 157 155 153 150 148 150 153 153 167 166 185 208 216 211 225 251 267 264 262 266 272 272 274 273 271 276 280 287 295 298 297 301 302 290 278 278 280 286 287 284 283 282 279 278 279 280 276 275 278 284 293 285 285 285 282 283 280 279 277 274 276
158 164 163 159 157 158 158 160 160 154 157 143 147 156 145 141 146 152 146 155 160 174 179 172 161 197 242 257 252 251 267 275 272 273 275 274 276 277 283 288 293 288 290 294 298 297 295 293 290 293 292 283 282 284 279 283 283 287 284 274 273 284 284 284 285 285 285 285 284 278 278 276 278 279
155 153 152 154 160 162 159 155 153 151 146 150 147 150 146 149 150 159 164 169 140 133 131 167 202 221 238 239 248 255 263 272 276 274 275 280 283 284 279 280 285 300 301 297 298 295 292 293 290 290 285 284 288 291 291 289 289 294 294 292 282 279 288 288 284 281 279 283 285 283 278 276 269 267
153 152 155 152 149 148 150 149 150 150 148 147 150 150 147 147 158 157 133 145 148 158 181 196 201 214 242 246 249 250 258 267 271 273 277 277 282 289 295 288 282 284 287 290 289 287 293 293 298 295 292 283 280 277 282 287 290 291 295 297 296 293 284 285 284 284 282 278 275 271 270 271 276 268
147 147 144 147 146 148 145 147 145 147 146 148 151 150 154 151 159 168 160 158 160 180 183 194 208 215 237 252 255 261 257 261 266 271 276 282 287 288 286 292 292 291 286 286 295 295 295 294 290 293 292 294 295 293 290 293 292 295 291 291 293 298 296 294 286 282 278 273 273 273 269 266 261 260
149 147 146 147 146 141 140 140 143 143 144 143 149 150 154 152 157 157 163 165 169 180 189 202 213 225 232 251 259 267 268 274 277 276 280 281 282 281 281 291 299 300 299 300 301 302 304 301 297 293 282 287 287 286 288 288 290 296 298 295 297 295 292 301 303 302 292 284 274 275 274 270 267 264